FW7478 Weather Reports


time (UTC)temp
C
wind
direction
speed
KPH
gust
KPH
rain 1hr
cm
rain 24hr
cm
rain mn
cm
humidity
%
barometer
mb
20260510011546 26 163 9.7 16.1 0.00 0.00 0.00 56 1005.0
20260510010039 27 163 8.0 14.5 0.00 0.00 0.00 54 1005.1
20260510004516 28 163 9.7 16.1 0.00 0.00 0.00 52 1005.1
20260510003023 28 176 9.7 17.7 0.00 0.00 0.00 49 1005.1
20260510001518 28 175 11.3 19.3 0.00 0.00 0.00 48 1005.1
20260510000014 29 156 11.3 17.7 0.00 0.00 0.00 47 1005.2
20260509234524 29 176 6.4 12.9 0.00 0.00 0.00 47 1005.2
20260509233012 30 151 11.3 19.3 0.00 0.00 0.00 45 1005.2
20260509231514 30 179 6.4 16.1 0.00 0.00 0.00 46 1005.1
20260509230011 30 171 8.0 16.1 0.00 0.00 0.00 45 1005.4
20260509224511 30 186 9.7 17.7 0.00 0.00 0.00 44 1005.3
20260509223010 30 174 8.0 16.1 0.00 0.00 0.00 43 1005.2
20260509221509 30 180 11.3 17.7 0.00 0.00 0.00 43 1005.3
20260509220020 30 233 9.7 17.7 0.00 0.00 0.00 42 1005.4
20260509180056 28 206 9.7 22.5 0.00 0.00 0.00 58 1008.4
20260509174555 27 118 6.4 12.9 0.00 0.00 0.00 60 1008.5
20260509173053 27 294 4.8 11.3 0.00 0.00 0.00 57 1008.8
20260509171552 27 238 6.4 16.1 0.00 0.00 0.00 60 1008.9
20260509161540 26 225 9.7 17.7 0.00 0.00 0.00 61 1009.3
20260509160038 26 256 4.8 12.9 0.00 0.00 0.00 65 1009.1
20260509154540 25 237 4.8 12.9 0.00 0.00 0.00 68 1009.3
20260509153039 25 258 6.4 12.9 0.00 0.00 0.00 69 1009.4
20260509151531 25 340 4.8 12.9 0.00 0.00 0.00 70 1009.3
20260509150031 25 312 1.6 14.5 0.00 0.00 0.00 72 1009.4
20260509144532 25 314 6.4 14.5 0.00 0.00 0.00 73 1009.3
20260509143024 23 302 4.8 17.7 0.00 0.00 0.00 76 1009.2
20260509141519 22 360 3.2 14.5 0.00 0.00 0.00 80 1009.2
20260509140015 21 281 3.2 12.9 0.00 0.00 0.00 83 1009.3
20260509134513 20 269 0.0 8.0 0.00 0.00 0.00 84 1009.4
20260509133010 19 360 4.8 12.9 0.00 0.00 0.00 85 1009.3
20260509131512 18 360 1.6 14.5 0.00 0.00 0.00 84 1009.1
20260509130009 18 360 6.4 14.5 0.00 0.00 0.00 83 1009.0
20260509124510 18 360 6.4 16.1 0.00 0.00 0.00 84 1008.5
20260509123016 17 360 6.4 20.9 0.00 0.00 0.00 85 1008.5
20260509121511 17 360 4.8 16.1 0.00 0.00 0.00 85 1008.4
20260509120007 17 360 8.0 17.7 0.00 0.00 0.00 85 1008.3
20260509114505 17 360 11.3 20.9 0.00 0.00 0.00 84 1008.1
20260509113006 17 360 6.4 14.5 0.00 0.00 0.00 86 1008.0
20260509111504 17 360 4.8 16.1 0.00 0.00 0.00 87 1007.8
20260509110003 17 360 8.0 19.3 0.00 0.00 0.00 88 1007.6
20260509104502 17 360 1.6 12.9 0.00 0.00 0.00 89 1007.6
20260509103001 17 360 4.8 16.1 0.00 0.00 0.00 88 1007.7
20260509101603 17 360 3.2 9.7 0.00 0.00 0.00 88 1008.0
20260509100059 17 360 4.8 14.5 0.00 0.00 0.00 87 1007.9
20260509094600 17 360 4.8 14.5 0.00 0.00 0.00 87 1007.9
20260509093059 17 360 9.7 17.7 0.00 0.00 0.00 87 1008.0
20260509091629 17 360 8.0 16.1 0.00 0.00 0.00 87 1008.1
20260509090057 17 360 12.9 24.1 0.00 0.00 0.00 86 1008.4
20260509084556 18 360 14.5 25.7 0.00 0.00 0.00 85 1008.9
20260509083056 17 360 9.7 19.3 0.00 0.00 0.00 85 1008.7
20260509081555 17 360 12.9 24.1 0.00 0.00 0.00 80 1009.0
20260509080105 17 360 9.7 22.5 0.00 0.00 0.00 81 1009.4
20260509074554 17 360 9.7 19.3 0.00 0.00 0.00 81 1009.7
20260509073115 17 360 8.0 27.4 0.00 0.00 0.00 80 1010.0
20260509071543 18 360 16.1 33.8 0.00 0.00 0.00 81 1010.7
20260509070044 18 360 22.5 54.7 0.00 0.00 0.00 86 1010.8
20260509064538 20 360 6.4 14.5 0.00 0.00 0.00 91 1010.7
20260509063036 19 360 11.3 35.4 0.00 0.00 0.00 91 1009.9
20260509061531 19 360 4.8 14.5 0.00 0.00 0.00 91 1008.1
20260509060040 19 360 3.2 12.9 0.00 0.00 0.00 90 1007.9
20260509054528 19 360 3.2 8.0 0.00 0.00 0.00 90 1007.6
20260509053032 19 360 4.8 12.9 0.00 0.00 0.00 90 1007.8
20260509051524 19 360 8.0 16.1 0.00 0.00 0.00 89 1007.8
20260509050021 20 360 4.8 19.3 0.00 0.00 0.00 89 1008.1
20260509044532 20 360 8.0 20.9 0.00 0.00 0.00 88 1008.1
20260509043029 20 360 12.9 20.9 0.00 0.00 0.00 88 1007.9
20260509041519 20 360 6.4 17.7 0.00 0.00 0.00 87 1007.8
20260509040018 20 360 11.3 19.3 0.00 0.00 0.00 87 1007.7
20260509034525 20 360 9.7 19.3 0.00 0.00 0.00 87 1007.6
20260509033019 20 360 11.3 17.7 0.00 0.00 0.00 87 1007.7
20260509031518 20 360 9.7 14.5 0.00 0.00 0.00 86 1007.7
20260509030015 20 360 6.4 16.1 0.00 0.00 0.00 86 1007.4
20260509024516 20 360 8.0 12.9 0.00 0.00 0.00 85 1007.1
20260509023015 21 360 4.8 9.7 0.00 0.00 0.00 85 1007.2
20260509021514 21 360 4.8 9.7 0.00 0.00 0.00 84 1007.0
20260509020014 21 360 3.2 8.0 0.00 0.00 0.00 84 1006.9
20260509014515 21 360 3.2 8.0 0.00 0.00 0.00 82 1006.8
20260509013012 21 360 3.2 9.7 0.00 0.00 0.00 81 1006.6